Vilo Acuña International Airport

Jump to: basic info | weather | frequencies | runways | comments

Related pages: nearby airports | nearby navaids | notams | map

Basic information (top)

Codes: CYO MUCL
Location: lon 21.616501, lat -81.545998, elev 10 ft / 3 m msl
Status: medium_airport
Scheduled airline service: yes
Links: Wikipedia Mobile

Weather (top)

Current conditions (rec'd 2014/10/01 11:51Z):

MUCL 011151Z 15005KT 9000 FEW015 28/23 Q1013

Airport forecast (rec'd 2014/09/27 18:00Z):

TAF MUCL 271700Z 2718/2724 10014KT 9000 SCT020 
      TEMPO 2719/2724 4000 TSRA SCT012CB BKN015

Frequencies (top)

Verify before use: may be inaccurate or out of date.

A/G: 340.7 MHz (CAYO LARGO RDO)
APP: 120.1 MHz (CAYO LARGO APP)
TWR: 118.5 MHz (CAYO LARGO TWR)

Runways (top)

12/30: 9,869 x 148 ft (3,008 x 45 m) — paved — lighted

Latest comments (top)

No comments yet for Vilo Acuña International Airport

More... (top)

See also NOTAMs and nearby airports and navaids, or visit the Vilo Acuña International Airport page at the main OurAirports website..